Time,TemperatureF,DewpointF,PressureIn,WindDirection,WindDirectionDegrees,WindSpeedMPH,WindSpeedGustMPH,Humidity,HourlyPrecipIn,Conditions,Clouds,dailyrainin,SoftwareType,DateUTC
2015-08-30 00:09:00,57.0,51.2,29.77,ESE,104,0.0,0.0,81,0.00,CLR,CLR,1.32,WeatherDisplay:10.37,2015-08-30 07:09:00,
2015-08-30 00:39:00,56.8,51.1,29.76,North,11,0.0,0.0,81,0.00,CLR,CLR,1.32,WeatherDisplay:10.37,2015-08-30 07:39:00,
2015-08-30 00:54:00,56.5,50.7,29.77,NNW,340,0.0,0.0,81,0.00,RA,RA,0.00,WeatherDisplay:10.37,2015-08-30 07:54:00,
2015-08-30 01:09:00,55.9,50.5,29.77,NNE,17,0.0,0.0,82,0.00,CLR,CLR,0.00,WeatherDisplay:10.37,2015-08-30 08:09:00,
2015-08-30 01:24:00,55.6,49.8,29.77,NNW,344,0.0,0.0,81,0.00,CLR,CLR,0.00,WeatherDisplay:10.37,2015-08-30 08:24:00,
2015-08-30 01:39:00,55.2,49.5,29.77,NNE,21,0.0,0.0,81,0.00,CLR,CLR,0.00,WeatherDisplay:10.37,2015-08-30 08:39:00,
2015-08-30 01:54:00,55.2,49.8,29.77,North,355,0.0,0.0,82,0.00,CLR,CLR,0.00,WeatherDisplay:10.37,2015-08-30 08:54:00,
2015-08-30 02:09:00,54.9,49.5,29.77,NNE,23,0.0,0.0,82,0.00,CLR,CLR,0.00,WeatherDisplay:10.37,2015-08-30 09:09:00,
2015-08-30 02:24:00,54.7,49.3,29.77,NE,43,0.0,0.0,82,0.00,CLR,CLR,0.00,WeatherDisplay:10.37,2015-08-30 09:24:00,
2015-08-30 02:39:00,54.6,49.2,29.78,SE,144,0.0,0.0,82,0.00,CLR,CLR,0.00,WeatherDisplay:10.37,2015-08-30 09:39:00,
2015-08-30 02:54:00,54.5,49.4,29.78,ENE,70,0.0,0.0,83,0.00,CLR,CLR,0.00,WeatherDisplay:10.37,2015-08-30 09:54:00,
2015-08-30 03:09:00,54.5,49.4,29.77,NNE,20,0.0,0.0,83,0.00,CLR,CLR,0.00,WeatherDisplay:10.37,2015-08-30 10:09:00,
2015-08-30 03:24:00,54.7,49.6,29.77,NNE,13,0.0,0.0,83,0.00,CLR,CLR,0.00,WeatherDisplay:10.37,2015-08-30 10:24:00,
2015-08-30 03:39:00,54.9,49.8,29.79,NNE,22,0.0,0.0,83,0.00,CLR,CLR,0.00,WeatherDisplay:10.37,2015-08-30 10:39:00,
2015-08-30 03:54:00,55.0,50.0,29.78,East,99,0.0,0.0,83,0.00,CLR,CLR,0.00,WeatherDisplay:10.37,2015-08-30 10:54:00,
2015-08-30 04:09:00,55.2,50.1,29.79,NNW,336,0.0,0.0,83,0.00,CLR,CLR,0.00,WeatherDisplay:10.37,2015-08-30 11:09:00,
2015-08-30 04:24:00,55.4,50.3,29.79,NE,54,0.0,0.0,83,0.00,CLR,CLR,0.00,WeatherDisplay:10.37,2015-08-30 11:24:00,
2015-08-30 04:39:00,55.6,50.5,29.79,SSW,202,0.0,0.0,83,0.02,RA,RA,0.02,WeatherDisplay:10.37,2015-08-30 11:39:00,
2015-08-30 04:54:00,56.1,51.4,29.80,SSW,213,0.0,3.0,84,0.00,CLR,CLR,0.02,WeatherDisplay:10.37,2015-08-30 11:54:00,
2015-08-30 05:09:00,56.5,51.4,29.80,SSW,209,1.0,3.0,83,0.00,CLR,CLR,0.02,WeatherDisplay:10.37,2015-08-30 12:09:00,
2015-08-30 05:24:00,56.5,51.4,29.80,SSW,210,1.0,3.0,83,0.00,CLR,CLR,0.02,WeatherDisplay:10.37,2015-08-30 12:24:00,
2015-08-30 05:39:00,55.9,50.9,29.81,SSE,164,0.0,5.0,83,0.00,CLR,CLR,0.02,WeatherDisplay:10.37,2015-08-30 12:39:00,
2015-08-30 05:54:00,55.4,50.4,29.82,WSW,252,0.0,1.0,83,0.00,CLR,CLR,0.02,WeatherDisplay:10.37,2015-08-30 12:54:00,
2015-08-30 06:09:00,55.2,50.1,29.81,WSW,237,0.0,1.0,83,0.00,CLR,CLR,0.02,WeatherDisplay:10.37,2015-08-30 13:09:00,
2015-08-30 06:24:00,54.9,49.8,29.83,NNE,15,0.0,0.0,83,0.00,CLR,CLR,0.02,WeatherDisplay:10.37,2015-08-30 13:24:00,
2015-08-30 06:54:00,55.0,50.3,29.85,West,277,1.0,5.0,84,0.00,CLR,CLR,0.02,WeatherDisplay:10.37,2015-08-30 13:54:00,
2015-08-30 07:09:00,55.2,50.5,29.84,SE,135,0.0,2.0,84,0.00,CLR,CLR,0.02,WeatherDisplay:10.37,2015-08-30 14:09:00,
2015-08-30 07:24:00,55.4,50.6,29.85,SW,223,0.0,4.0,84,0.02,,,0.04,WeatherDisplay:10.37,2015-08-30 14:24:00,
2015-08-30 07:39:00,55.9,51.2,29.87,WSW,253,1.0,5.0,84,0.00,CLR,CLR,0.04,WeatherDisplay:10.37,2015-08-30 14:39:00,
2015-08-30 07:54:00,56.1,51.4,29.87,SSW,192,0.0,3.0,84,0.00,CLR,CLR,0.04,WeatherDisplay:10.37,2015-08-30 14:54:00,
2015-08-30 08:09:00,56.3,51.5,29.87,South,169,1.0,4.0,84,0.00,CLR,CLR,0.04,WeatherDisplay:10.37,2015-08-30 15:09:00,
2015-08-30 08:24:00,56.7,51.9,29.87,SSE,160,0.0,4.0,84,0.00,CLR,CLR,0.04,WeatherDisplay:10.37,2015-08-30 15:24:00,
2015-08-30 08:39:00,57.4,52.6,29.88,SSW,194,0.0,8.0,84,0.00,CLR,CLR,0.04,WeatherDisplay:10.37,2015-08-30 15:39:00,
2015-08-30 08:54:00,60.0,55.5,29.88,South,171,1.0,4.0,85,0.00,CLR,CLR,0.04,WeatherDisplay:10.37,2015-08-30 15:54:00,
2015-08-30 09:09:00,62.7,57.8,29.89,SSW,212,1.0,4.0,84,0.00,CLR,CLR,0.04,WeatherDisplay:10.37,2015-08-30 16:09:00,
2015-08-30 09:24:00,63.3,57.7,29.89,WSW,247,1.0,7.0,82,0.00,CLR,CLR,0.04,WeatherDisplay:10.37,2015-08-30 16:24:00,
2015-08-30 09:39:00,65.0,59.0,29.90,SW,230,2.0,7.0,81,0.00,CLR,CLR,0.04,WeatherDisplay:10.37,2015-08-30 16:39:00,
2015-08-30 09:54:00,67.3,60.5,29.91,SSW,207,0.0,7.0,79,0.00,CLR,CLR,0.04,WeatherDisplay:10.37,2015-08-30 16:54:00,
2015-08-30 10:09:00,68.5,60.7,29.91,SSW,212,0.0,8.0,76,0.00,CLR,CLR,0.04,WeatherDisplay:10.37,2015-08-30 17:09:00,
2015-08-30 10:24:00,68.7,60.1,29.92,SW,229,1.0,8.0,74,0.00,CLR,CLR,0.04,WeatherDisplay:10.37,2015-08-30 17:24:00,
2015-08-30 10:39:00,69.6,60.2,29.92,South,184,3.0,8.0,72,0.00,CLR,CLR,0.04,WeatherDisplay:10.37,2015-08-30 17:39:00,
2015-08-30 10:54:00,70.1,60.3,29.92,WSW,244,1.0,7.0,71,0.00,CLR,CLR,0.04,WeatherDisplay:10.37,2015-08-30 17:54:00,
2015-08-30 11:09:00,71.2,60.1,29.93,SW,222,3.0,6.0,68,0.00,CLR,CLR,0.04,WeatherDisplay:10.37,2015-08-30 18:09:00,
2015-08-30 11:24:00,69.6,57.8,29.93,SW,221,0.0,13.0,66,0.00,CLR,CLR,0.04,WeatherDisplay:10.37,2015-08-30 18:24:00,
2015-08-30 11:39:00,70.5,59.0,29.93,SW,219,0.0,4.0,67,0.00,CLR,CLR,0.04,WeatherDisplay:10.37,2015-08-30 18:39:00,
2015-08-30 11:54:00,69.6,57.8,29.94,SSW,200,1.0,7.0,66,0.00,CLR,CLR,0.04,WeatherDisplay:10.37,2015-08-30 18:54:00,
2015-08-30 12:09:00,68.9,56.6,29.94,South,185,1.0,10.0,65,0.00,CLR,CLR,0.04,WeatherDisplay:10.37,2015-08-30 19:09:00,
2015-08-30 12:24:00,69.1,56.8,29.94,SSW,213,1.0,9.0,65,0.00,CLR,CLR,0.04,WeatherDisplay:10.37,2015-08-30 19:24:00,
2015-08-30 12:39:00,68.5,56.3,29.94,SW,219,0.0,10.0,65,0.00,CLR,CLR,0.04,WeatherDisplay:10.37,2015-08-30 19:39:00,
2015-08-30 12:54:00,70.3,58.0,29.94,SSW,194,2.0,8.0,65,0.00,CLR,CLR,0.04,WeatherDisplay:10.37,2015-08-30 19:54:00,
2015-08-30 13:09:00,70.1,56.9,29.95,WSW,240,1.0,13.0,63,0.00,CLR,CLR,0.04,WeatherDisplay:10.37,2015-08-30 20:09:00,
2015-08-30 13:24:00,70.5,57.3,29.95,SW,231,1.0,9.0,63,0.00,CLR,CLR,0.04,WeatherDisplay:10.37,2015-08-30 20:24:00,
2015-08-30 13:39:00,71.3,57.6,29.95,South,181,6.0,12.0,62,0.00,CLR,CLR,0.04,WeatherDisplay:10.37,2015-08-30 20:39:00,
2015-08-30 13:54:00,73.2,58.4,29.95,SSW,196,2.0,12.0,60,0.00,CLR,CLR,0.04,WeatherDisplay:10.37,2015-08-30 20:54:00,
2015-08-30 14:09:00,74.3,58.1,29.96,SW,216,3.0,14.0,57,0.00,CLR,CLR,0.04,WeatherDisplay:10.37,2015-08-30 21:09:00,
2015-08-30 14:24:00,74.1,57.9,29.96,SW,215,2.0,15.0,57,0.00,CLR,CLR,0.04,WeatherDisplay:10.37,2015-08-30 21:24:00,
2015-08-30 14:39:00,74.5,57.8,29.96,SW,223,2.0,10.0,56,0.00,CLR,CLR,0.04,WeatherDisplay:10.37,2015-08-30 21:39:00,
2015-08-30 14:54:00,74.3,57.1,29.97,SSW,192,3.0,13.0,55,0.00,CLR,CLR,0.04,WeatherDisplay:10.37,2015-08-30 21:54:00,
2015-08-30 15:09:00,73.7,56.5,29.97,SW,217,3.0,9.0,55,0.00,CLR,CLR,0.04,WeatherDisplay:10.37,2015-08-30 22:09:00,
2015-08-30 15:24:00,73.5,55.9,29.97,SSW,205,1.0,13.0,54,0.00,CLR,CLR,0.04,WeatherDisplay:10.37,2015-08-30 22:24:00,
2015-08-30 15:39:00,73.8,56.1,29.97,SSW,210,2.0,9.0,54,0.00,CLR,CLR,0.04,WeatherDisplay:10.37,2015-08-30 22:39:00,
2015-08-30 15:54:00,73.9,56.2,29.98,SSW,192,1.0,8.0,54,0.00,CLR,CLR,0.04,WeatherDisplay:10.37,2015-08-30 22:54:00,
2015-08-30 16:09:00,74.1,56.4,29.98,SSW,200,0.0,10.0,54,0.00,CLR,CLR,0.04,WeatherDisplay:10.37,2015-08-30 23:09:00,
2015-08-30 16:24:00,73.6,55.9,29.98,SSW,200,1.0,7.0,54,0.00,CLR,CLR,0.04,WeatherDisplay:10.37,2015-08-30 23:24:00,
2015-08-30 16:39:00,73.9,55.7,29.98,SW,227,1.0,14.0,53,0.00,CLR,CLR,0.04,WeatherDisplay:10.37,2015-08-30 23:39:00,
2015-08-30 16:54:00,72.8,54.6,29.99,SW,220,0.0,13.0,53,0.00,CLR,CLR,0.04,WeatherDisplay:10.37,2015-08-30 23:54:00,
2015-08-30 17:09:00,71.8,54.7,29.99,SSW,200,1.0,7.0,55,0.00,CLR,CLR,0.04,WeatherDisplay:10.37,2015-08-31 00:09:00,
2015-08-30 17:24:00,70.7,53.7,29.98,SW,230,2.0,8.0,55,0.00,CLR,CLR,0.04,WeatherDisplay:10.37,2015-08-31 00:24:00,
2015-08-30 17:39:00,70.2,53.2,29.98,SW,222,0.0,10.0,55,0.00,CLR,CLR,0.04,WeatherDisplay:10.37,2015-08-31 00:39:00,
2015-08-30 17:54:00,69.9,53.4,29.99,SW,235,1.0,9.0,56,0.00,CLR,CLR,0.04,WeatherDisplay:10.37,2015-08-31 00:54:00,
2015-08-30 18:09:00,69.4,53.0,29.99,SW,228,0.0,5.0,56,0.00,CLR,CLR,0.04,WeatherDisplay:10.37,2015-08-31 01:09:00,
2015-08-30 18:24:00,68.1,52.3,29.99,SSW,207,0.0,12.0,57,0.00,CLR,CLR,0.04,WeatherDisplay:10.37,2015-08-31 01:24:00,
2015-08-30 18:39:00,67.0,51.7,29.99,South,180,1.0,7.0,58,0.00,CLR,CLR,0.04,WeatherDisplay:10.37,2015-08-31 01:39:00,
2015-08-30 18:54:00,66.0,51.7,29.99,SSW,193,1.0,7.0,60,0.00,CLR,CLR,0.04,WeatherDisplay:10.37,2015-08-31 01:54:00,
2015-08-30 19:09:00,65.2,51.4,29.99,SW,228,2.0,5.0,61,0.00,CLR,CLR,0.04,WeatherDisplay:10.37,2015-08-31 02:09:00,
2015-08-30 19:24:00,64.8,51.4,29.99,SSW,198,1.0,2.0,62,0.00,CLR,CLR,0.04,WeatherDisplay:10.37,2015-08-31 02:24:00,
2015-08-30 19:39:00,64.0,51.2,29.99,SSW,201,0.0,4.0,63,0.00,CLR,CLR,0.04,WeatherDisplay:10.37,2015-08-31 02:39:00,
2015-08-30 19:54:00,63.0,50.6,30.00,SSW,198,0.0,5.0,64,0.00,CLR,CLR,0.04,WeatherDisplay:10.37,2015-08-31 02:54:00,
2015-08-30 20:09:00,62.2,50.3,30.00,South,189,0.0,2.0,65,0.00,CLR,CLR,0.04,WeatherDisplay:10.37,2015-08-31 03:09:00,
2015-08-30 20:24:00,61.5,50.1,30.00,SE,130,0.0,0.0,66,0.00,CLR,CLR,0.04,WeatherDisplay:10.37,2015-08-31 03:24:00,
2015-08-30 20:39:00,60.6,49.2,30.01,ESE,111,0.0,0.0,66,0.00,CLR,CLR,0.04,WeatherDisplay:10.37,2015-08-31 03:39:00,
2015-08-30 20:54:00,59.9,48.9,30.00,ESE,110,0.0,0.0,67,0.00,CLR,CLR,0.04,WeatherDisplay:10.37,2015-08-31 03:54:00,
2015-08-30 21:09:00,59.5,49.0,30.01,ESE,112,0.0,0.0,68,0.00,CLR,CLR,0.04,WeatherDisplay:10.37,2015-08-31 04:09:00,
2015-08-30 21:24:00,59.2,49.0,30.01,NNE,19,0.0,0.0,69,0.00,CLR,CLR,0.04,WeatherDisplay:10.37,2015-08-31 04:24:00,
2015-08-30 21:39:00,58.8,49.1,30.01,West,270,0.0,2.0,70,0.00,CLR,CLR,0.04,WeatherDisplay:10.37,2015-08-31 04:39:00,
2015-08-30 21:54:00,58.8,49.1,30.01,ESE,103,0.0,0.0,70,0.00,CLR,CLR,0.04,WeatherDisplay:10.37,2015-08-31 04:54:00,
2015-08-30 22:09:00,58.8,49.4,30.01,East,90,0.0,0.0,71,0.00,CLR,CLR,0.04,WeatherDisplay:10.37,2015-08-31 05:09:00,
2015-08-30 22:24:00,58.3,49.3,30.01,NE,51,0.0,0.0,72,0.00,CLR,CLR,0.04,WeatherDisplay:10.37,2015-08-31 05:24:00,
2015-08-30 22:39:00,58.1,49.1,30.01,NNE,31,0.0,0.0,72,0.00,CLR,CLR,0.04,WeatherDisplay:10.37,2015-08-31 05:39:00,